Wind_Speed
80 80 80 80 80 81 83 84 86 89 91 93 95 97 98 100 102 104 106 107 108 109 111 112 113 113 114 114 114 114 114 114 114 114 114 114 114 114 113 112 111 109 108 109 111 112 113 115 117 118 119 119 118 119 121 121 122 123 124 125 125 124 123
79 78 78 78 78 78 79 80 81 83 86 88 90 92 94 96 97 99 101 102 103 104 104 105 106 106 106 106 107 107 107 107 107 107 107 107 107 106 106 105 103 102 101 101 104 106 108 110 112 114 116 116 116 117 118 119 121 122 122 123 123 122 121
78 77 77 77 77 77 77 78 78 79 81 83 85 86 88 90 92 94 95 96 97 98 98 99 99 100 100 100 100 100 100 100 100 100 100 100 100 99 99 100 100 99 99 98 100 103 105 107 110 112 113 114 114 114 115 117 119 121 121 121 121 120 118
79 77 76 76 76 76 76 76 77 78 79 80 81 82 83 85 86 88 89 90 91 92 92 93 93 94 94 94 94 95 95 95 95 95 95 95 96 96 97 98 99 99 98 97 98 100 102 104 107 109 111 113 112 112 114 116 118 119 119 120 120 119 117
80 78 76 76 75 75 75 75 76 76 77 78 78 80 81 82 83 84 85 86 87 88 89 89 89 89 89 90 90 91 91 92 92 93 93 94 95 95 96 97 98 98 98 97 96 97 99 102 104 106 109 111 111 112 114 116 116 117 117 119 119 118 115
81 79 78 77 76 75 75 74 75 75 76 76 76 77 79 80 81 82 83 85 86 87 87 88 88 88 88 88 89 90 90 91 92 92 93 94 95 95 96 96 97 97 97 96 95 96 98 100 103 106 109 111 112 112 114 115 115 115 115 115 115 115 112
82 81 80 79 78 77 75 75 75 75 75 75 75 76 77 78 79 81 82 84 85 86 87 87 87 87 88 88 89 90 90 91 91 92 93 93 94 94 94 95 95 96 96 96 96 97 99 101 104 107 109 111 112 112 112 112 112 112 112 111 111 110 108
85 83 82 81 80 79 77 77 76 76 75 75 75 76 77 78 79 80 81 83 85 86 86 87 87 87 87 87 88 89 90 91 91 91 92 93 93 93 94 94 95 96 97 97 97 98 100 102 105 108 110 111 111 111 110 109 108 107 108 108 107 106 103
87 86 84 83 82 80 79 79 78 77 76 76 76 76 77 78 79 81 82 84 85 86 87 86 86 87 87 87 88 89 90 90 91 91 92 93 93 94 95 96 98 98 98 98 98 99 101 103 106 109 110 110 110 108 107 106 105 103 103 103 103 103 100
89 88 87 85 83 82 81 80 79 78 78 77 77 77 78 79 80 82 84 86 87 89 89 88 88 88 88 88 89 90 90 91 91 92 93 94 96 97 98 98 99 100 99 99 99 100 103 105 107 109 110 109 107 105 104 104 103 101 100 98 99 100 98
91 90 89 87 85 83 82 81 80 79 79 78 78 78 78 79 81 82 85 87 89 90 91 91 91 91 91 92 92 92 93 93 93 94 95 97 98 99 100 100 100 101 100 100 100 101 104 106 107 109 109 107 104 102 102 101 100 98 97 95 95 96 96
93 92 91 89 87 85 83 83 82 81 80 79 79 79 79 80 82 84 86 88 89 91 92 92 92 93 94 95 95 95 95 94 95 96 97 98 99 101 102 102 102 102 101 100 100 101 104 106 107 107 107 105 102 100 99 98 97 96 94 92 92 93 93
95 94 93 91 89 87 86 85 84 83 81 81 80 79 79 80 82 85 87 89 90 91 92 93 93 94 95 96 96 96 96 96 96 97 98 99 100 102 102 103 103 103 101 100 99 101 103 106 107 106 105 103 100 98 96 95 95 94 92 90 89 90 91
96 95 94 92 90 89 89 88 86 85 84 83 82 81 80 80 82 85 88 90 92 93 93 94 94 95 96 97 97 97 97 96 97 97 98 100 101 102 102 103 104 103 101 99 99 100 102 104 105 104 103 101 99 96 94 92 92 92 90 88 87 88 88
97 96 95 93 92 92 91 90 89 87 87 86 84 83 82 82 83 86 88 91 93 94 94 95 95 96 97 98 98 98 97 97 97 98 99 100 101 102 102 104 104 102 100 99 99 100 102 103 104 102 101 99 98 95 92 90 89 90 88 86 85 86 86
98 97 95 95 94 93 93 92 91 90 89 88 87 86 85 84 85 87 89 91 93 94 94 95 95 96 97 97 98 98 98 98 98 99 99 100 100 101 102 104 104 101 99 99 100 101 102 103 102 101 99 98 96 93 91 88 87 87 86 84 83 84 84
98 97 96 96 95 94 94 94 94 93 92 91 90 88 87 87 88 89 90 92 93 93 94 95 96 96 96 96 97 98 99 99 99 99 100 100 100 101 102 103 103 101 100 100 100 101 102 102 100 99 97 95 94 91 89 87 86 85 84 82 81 81 81
97 97 97 96 96 95 95 96 96 96 95 94 93 91 90 89 90 91 92 92 92 93 94 95 96 96 95 96 97 98 99 99 100 100 99 99 99 100 101 102 102 100 100 100 101 102 102 101 99 97 95 94 92 90 87 85 83 83 82 81 80 79 78
97 97 97 97 97 96 96 97 98 98 97 97 96 94 92 91 92 92 92 92 92 93 95 95 96 95 95 95 96 97 98 99 99 99 99 99 99 100 100 101 100 99 100 101 102 102 101 99 97 95 93 92 90 88 86 84 81 80 79 78 78 78 77
97 97 97 97 97 97 98 99 99 100 100 99 98 97 94 93 93 93 92 91 91 93 95 95 95 95 95 96 96 97 98 99 99 99 98 99 99 99 99 98 98 98 99 101 102 102 100 98 95 93 91 89 88 86 84 82 80 78 77 75 76 77 76
98 98 98 98 98 99 99 100 101 102 102 101 100 99 97 95 94 93 92 91 92 93 94 95 95 96 96 96 96 97 98 98 98 98 98 98 98 98 97 96 96 97 99 100 101 100 99 96 94 91 89 87 85 84 82 80 78 76 75 74 74 74 75
98 98 98 99 100 101 102 103 104 104 104 103 102 101 99 96 94 93 92 91 92 93 94 95 95 96 96 96 97 97 97 97 97 97 97 97 97 96 95 94 94 95 97 99 100 99 97 95 92 89 87 84 82 81 80 78 76 75 73 73 73 73 73
99 99 100 101 102 103 105 105 106 105 105 105 103 102 99 97 96 95 93 92 92 93 94 94 95 95 96 97 97 97 97 96 96 96 96 96 96 95 94 93 93 94 95 97 98 97 95 93 91 87 84 82 81 79 78 76 74 73 72 72 72 73 73
100 100 101 102 104 106 107 107 107 107 106 105 103 101 99 98 97 95 94 93 92 93 93 94 95 96 97 97 97 97 96 96 96 96 95 95 95 94 93 93 93 93 93 94 95 94 92 91 89 86 83 81 79 77 76 75 73 72 72 72 72 72 72
102 102 103 104 106 108 109 109 108 108 106 104 102 100 99 98 97 96 94 93 93 93 93 94 95 96 97 97 97 96 95 95 95 95 94 94 94 93 93 93 93 93 92 92 92 91 89 88 87 84 82 80 77 76 75 74 72 72 72 72 71 71 71
104 105 105 106 107 109 110 110 109 107 105 103 100 99 98 97 97 96 95 94 93 93 92 93 94 95 96 96 95 94 93 93 93 93 93 93 92 92 92 92 93 92 90 89 89 88 86 86 85 83 80 78 76 75 75 73 71 71 73 73 72 70 71
107 107 108 108 109 109 109 109 108 107 104 102 100 99 98 98 97 97 96 95 94 93 93 93 94 95 95 95 93 92 92 92 92 91 91 91 91 90 91 91 91 89 87 86 86 85 84 83 83 81 79 77 75 74 74 72 71 71 73 73 72 70 70
110 110 111 110 110 109 109 108 108 106 104 102 101 100 99 99 99 98 97 96 94 93 93 93 94 95 95 93 92 92 92 91 90 90 90 90 89 89 89 89 88 86 84 83 82 82 81 81 80 78 77 75 73 73 72 72 72 72 72 73 72 70 69
111 112 112 111 110 109 108 108 108 107 104 103 102 101 100 100 100 99 98 96 94 93 92 93 94 94 93 93 92 91 91 90 88 88 88 88 87 87 87 86 85 83 81 80 79 79 79 78 77 76 75 73 72 71 71 71 72 72 73 72 71 70 69
111 111 111 110 109 108 107 107 107 106 104 103 102 101 101 101 100 99 98 96 94 92 93 93 94 93 93 92 91 91 90 88 86 86 86 85 85 84 84 83 82 80 78 77 77 77 76 75 75 74 73 71 70 70 70 71 72 73 72 72 70 69 68
110 109 109 108 107 106 106 105 105 104 104 102 101 101 100 100 99 98 97 96 94 93 93 94 94 93 92 92 91 90 88 86 85 84 84 83 82 82 81 80 79 77 76 75 75 74 73 73 72 71 70 69 68 68 69 71 72 72 72 71 70 69 68
107 107 106 105 104 104 104 103 103 102 101 101 101 100 100 98 97 96 96 95 93 92 93 94 93 93 92 91 90 88 87 85 84 83 82 81 80 79 78 77 76 75 74 73 73 72 71 71 69 68 68 67 67 68 69 70 71 71 70 70 69 69 68
104 104 103 103 102 101 101 100 100 99 99 99 99 99 98 96 95 94 94 93 92 92 93 93 93 92 91 90 88 87 85 84 83 82 80 79 78 77 77 75 74 73 72 71 70 70 70 69 68 66 66 66 66 67 68 69 70 70 69 69 69 69 69
102 101 101 101 100 99 98 97 96 96 97 97 97 97 96 93 92 92 92 92 91 91 92 92 91 91 89 88 86 85 83 82 81 80 78 77 76 76 75 74 72 71 70 69 68 68 68 67 66 65 64 64 65 66 67 68 68 68 69 69 69 69 69
100 99 98 98 98 97 95 94 93 93 94 95 95 94 92 90 90 90 91 90 90 90 90 89 89 89 87 86 84 83 82 80 79 77 76 75 74 74 73 72 71 69 68 67 66 66 66 65 64 64 63 63 64 65 66 67 67 67 68 69 69 69 69
99 98 97 96 95 94 92 91 91 91 92 92 92 90 88 87 87 88 89 90 90 89 88 88 87 87 85 84 83 81 80 78 77 75 74 73 73 72 72 71 70 68 66 65 65 64 64 63 63 62 63 62 63 64 65 66 66 67 68 68 68 68 68
Wind_Direction
296 294 292 289 287 286 284 283 282 280 279 278 277 276 276 275 275 275 274 274 274 274 274 275 275 275 275 276 276 276 277 277 277 277 278 278 278 278 279 279 280 280 280 281 281 282 282 282 283 283 283 284 284 284 284 284 284 284 284 284 285 285 285
299 297 296 293 291 289 287 286 284 283 282 280 279 278 277 277 276 276 276 276 276 276 276 276 276 276 276 277 277 277 277 278 278 278 278 279 279 280 280 281 281 280 280 281 282 282 282 283 283 283 284 284 284 284 285 285 285 285 285 285 285 286 286
302 300 299 297 295 292 290 289 288 286 284 283 282 281 280 279 278 278 277 277 277 277 277 277 277 277 277 278 278 278 278 279 279 279 280 280 281 281 281 281 281 281 281 281 282 282 282 283 283 284 284 284 284 284 285 285 285 285 285 286 286 286 286
304 303 302 300 298 296 294 292 290 289 288 286 285 284 283 282 281 281 281 280 280 279 279 279 279 279 279 279 280 280 280 280 281 281 281 281 282 282 282 282 282 282 282 282 282 282 282 283 283 283 284 284 284 284 285 284 285 285 286 286 286 287 287
305 305 303 302 300 298 296 294 292 291 290 289 288 287 286 285 284 284 284 283 282 282 281 281 281 281 281 281 281 282 282 282 282 282 282 282 282 283 283 283 283 283 283 283 282 282 283 283 283 283 284 284 284 284 285 285 285 286 287 287 287 287 287
307 306 304 302 300 299 297 295 293 292 290 290 289 288 287 287 286 286 285 285 284 284 283 283 283 283 283 283 283 283 283 283 283 283 283 283 283 283 283 283 283 283 283 283 283 283 283 283 283 284 284 284 284 284 285 286 287 287 287 287 287 287 287
308 307 305 302 301 300 299 297 295 293 292 291 290 289 289 288 288 287 286 286 285 285 284 284 284 284 284 284 283 283 283 283 284 284 284 284 284 284 284 284 284 284 284 284 284 285 284 284 284 284 284 284 284 285 286 287 288 288 288 287 287 287 287
308 307 305 303 302 301 300 298 297 295 294 293 292 291 290 289 289 288 288 287 286 286 285 285 285 285 284 284 284 284 284 284 284 284 285 285 285 285 285 285 285 285 285 286 286 286 286 286 286 285 285 285 285 287 288 288 289 289 289 289 288 287 287
307 306 305 303 302 301 300 299 298 297 295 294 293 292 291 291 290 289 289 288 287 287 286 286 286 285 285 285 285 285 285 285 285 285 286 286 286 286 286 286 286 286 287 287 288 288 288 288 287 286 286 286 287 289 290 290 290 290 290 290 290 289 288
305 304 304 303 302 301 300 299 298 297 296 295 294 294 293 292 291 291 290 289 288 288 287 287 287 286 286 286 286 285 286 286 286 286 287 287 287 287 287 287 287 287 288 288 289 289 289 289 288 288 288 288 289 290 291 291 291 291 290 290 290 290 289
304 303 302 302 301 300 299 298 297 297 296 296 295 294 293 293 292 291 290 289 289 288 288 287 287 287 287 286 286 286 286 286 286 287 287 287 287 287 287 288 288 288 288 289 290 290 290 290 289 289 289 289 291 292 292 292 292 292 291 291 291 290 290
302 301 301 301 301 300 299 297 297 296 296 296 295 293 293 292 292 291 290 289 289 288 288 287 287 287 286 286 286 285 286 286 286 287 287 287 287 288 288 288 289 289 289 290 290 291 291 290 289 289 290 291 292 293 293 293 293 292 292 291 291 290 290
300 300 300 300 300 299 298 297 296 296 296 296 295 294 293 293 292 291 291 290 289 288 288 287 287 287 286 286 285 286 286 286 286 287 287 287 287 288 288 289 289 289 289 290 291 291 291 290 290 290 291 292 293 293 294 294 293 292 292 291 291 290 289
299 299 299 299 299 298 297 296 296 296 296 296 295 295 294 293 292 291 291 290 289 289 288 288 287 287 286 286 286 286 286 286 286 287 287 287 288 289 289 290 290 289 290 291 291 291 291 290 290 291 292 293 294 294 294 294 293 292 292 291 290 289 288
297 298 298 298 297 296 296 296 296 296 296 296 296 295 294 293 292 291 291 290 290 289 289 288 287 287 286 286 287 287 287 287 287 287 287 288 289 289 290 290 290 290 291 291 291 291 290 290 291 292 293 294 294 294 294 294 293 292 292 291 290 289 288
296 297 296 296 296 295 296 295 295 295 295 296 296 296 295 294 293 292 291 291 290 289 289 288 287 287 287 287 287 287 287 288 288 288 288 289 290 290 291 291 290 291 292 292 291 291 291 291 292 293 294 295 295 295 295 294 293 292 291 291 289 288 288
295 295 295 294 294 295 295 294 295 295 295 295 296 296 295 294 294 293 292 291 290 290 289 288 287 287 287 287 287 287 287 288 288 288 289 289 290 291 291 291 291 292 293 292 292 291 291 292 293 294 295 295 294 295 295 294 293 292 291 290 289 288 287
294 293 293 293 293 294 294 294 294 294 295 295 296 296 295 295 294 294 293 292 291 290 288 287 287 287 287 287 287 287 288 288 288 289 289 290 290 291 291 291 292 293 293 292 292 292 292 293 294 294 295 295 295 294 294 293 292 291 290 289 288 287 287
292 292 292 292 292 293 293 293 293 294 294 295 296 296 295 295 295 294 293 292 291 290 288 287 287 287 287 287 287 287 288 288 288 289 289 290 290 291 291 292 292 293 293 292 292 292 292 293 294 294 295 295 294 294 293 292 291 290 289 288 288 287 287
291 291 291 291 292 292 292 292 293 293 294 295 295 295 295 295 295 294 293 292 291 289 288 288 288 287 287 287 287 287 287 288 288 289 289 290 290 290 291 292 293 293 293 292 292 292 293 294 294 294 294 294 294 293 292 291 290 289 288 287 287 287 286
290 290 291 291 291 291 292 292 292 293 294 295 295 295 295 295 295 294 293 292 291 289 289 289 288 288 288 287 287 287 287 288 288 289 289 289 290 290 291 292 292 293 292 292 292 292 293 293 294 294 294 293 293 292 291 290 289 288 287 287 286 285 285
290 290 290 291 291 291 291 292 292 293 294 294 294 294 295 295 295 294 293 292 291 290 290 290 289 289 289 289 288 288 288 289 289 289 290 290 290 291 291 291 292 292 291 291 291 292 293 293 293 293 293 292 291 291 290 289 288 288 287 286 285 285 285
289 290 290 291 291 291 291 292 293 293 293 294 294 294 295 295 294 294 293 292 292 291 291 291 291 290 290 290 290 290 290 291 291 291 291 291 291 291 291 291 291 290 290 291 291 292 293 293 293 293 292 292 291 290 290 289 288 287 287 286 285 285 285
289 290 290 290 291 291 291 292 292 292 292 293 293 294 294 294 294 293 293 293 292 292 292 292 292 291 291 291 291 291 292 292 292 292 292 292 291 291 291 291 290 290 290 291 292 292 293 293 292 292 292 291 291 290 290 289 288 288 287 286 286 286 287
289 289 289 290 290 290 290 291 291 291 291 292 292 293 293 293 293 293 293 293 292 292 292 292 292 292 292 292 292 292 292 292 292 292 291 291 291 291 291 291 290 290 291 292 292 292 293 292 292 292 292 291 291 290 290 289 289 289 288 287 287 288 288
288 289 289 289 289 289 290 290 291 291 291 292 292 293 293 293 293 293 293 292 292 292 292 292 292 292 292 292 292 292 292 292 292 291 291 291 291 290 290 290 290 291 291 292 291 292 292 291 291 291 292 291 291 291 290 290 290 290 289 288 288 289 289
289 289 289 289 289 289 290 290 291 291 292 292 293 293 293 293 293 293 293 293 292 292 292 292 292 292 292 292 292 292 292 292 291 291 291 290 290 290 290 290 290 291 291 291 291 291 291 290 291 291 291 291 291 291 291 290 290 289 289 289 290 290 291
289 290 290 290 290 290 291 291 292 292 292 293 293 293 293 293 293 292 292 292 292 292 292 292 292 292 292 292 292 292 292 292 291 291 291 290 290 290 289 289 290 290 290 290 290 290 290 290 290 290 290 291 291 291 290 290 289 289 289 289 290 291 292
289 289 289 290 290 291 291 292 292 292 293 293 293 293 293 292 292 292 292 292 292 292 292 292 292 292 292 292 292 292 291 291 291 291 290 290 290 289 289 289 289 290 289 289 289 289 289 289 289 290 290 290 290 290 290 289 289 289 289 289 291 292 293
288 288 289 289 290 290 291 291 292 292 293 293 293 292 292 291 291 291 291 292 292 292 292 292 292 292 292 292 292 292 291 291 291 290 290 289 289 289 289 289 289 289 289 288 288 288 288 288 288 289 289 290 290 289 289 289 288 289 289 290 292 293 293
287 287 288 289 289 290 290 291 291 291 292 292 292 292 291 291 291 291 291 291 292 292 292 292 292 292 293 292 292 292 291 291 291 290 290 290 289 289 289 289 288 288 288 288 288 288 287 287 288 288 288 289 289 288 288 288 288 289 290 291 292 293 293
287 287 287 288 288 289 289 290 290 291 291 291 291 291 290 290 290 290 291 291 291 292 292 292 292 293 293 292 292 292 292 291 291 290 290 290 290 289 288 288 288 288 288 288 288 287 287 287 287 288 288 288 288 288 287 288 288 289 290 291 292 292 292
286 287 287 287 288 288 288 289 289 290 290 290 290 290 290 290 290 290 290 290 291 291 292 292 292 292 292 292 291 291 291 291 291 291 290 290 290 289 288 288 288 288 287 287 287 287 287 287 287 287 287 287 287 287 287 287 288 289 290 290 290 290 290
286 286 286 287 287 287 288 288 289 289 289 289 289 289 289 290 290 290 290 290 290 291 291 292 292 291 291 291 291 291 291 291 290 291 290 290 289 288 288 288 287 287 287 287 287 286 286 286 286 286 286 286 286 286 287 287 287 288 288 289 289 288 288
285 285 286 286 286 287 287 288 288 288 289 289 288 289 289 289 289 289 289 290 290 290 291 291 291 290 290 290 290 290 290 290 290 290 290 289 289 288 288 288 287 287 287 287 286 286 286 286 286 286 286 286 286 286 286 286 287 287 287 287 287 287 287
285 285 285 285 285 286 287 287 288 288 288 288 288 288 289 289 289 289 289 290 290 291 291 290 290 290 290 290 290 290 290 290 290 290 289 289 289 288 288 288 288 287 287 286 286 285 285 285 286 286 286 286 286 286 286 286 286 286 286 286 286 286 287
Height
10220 10215 10211 10207 10203 10200 10196 10193 10190 10187 10185 10182 10180 10178 10176 10174 10172 10169 10167 10165 10165 10164 10162 10161 10158 10156 10155 10154 10151 10148 10147 10145 10143 10140 10137 10134 10132 10129 10128 10128 10127 10126 10124 10113 10101 10100 10094 10081 10074 10071 10066 10065 10065 10060 10054 10052 10048 10044 10040 10036 10033 10032 10033
10209 10204 10200 10196 10192 10189 10185 10182 10178 10175 10172 10169 10167 10165 10162 10160 10157 10154 10152 10151 10150 10149 10148 10147 10144 10142 10141 10139 10136 10134 10132 10130 10127 10124 10122 10118 10117 10115 10112 10112 10112 10110 10109 10104 10092 10085 10082 10072 10063 10058 10053 10051 10052 10048 10041 10036 10031 10027 10025 10021 10018 10017 10017
10199 10194 10190 10185 10181 10177 10174 10171 10167 10164 10161 10158 10155 10153 10150 10147 10144 10141 10139 10138 10136 10135 10134 10132 10130 10128 10127 10125 10121 10119 10117 10115 10113 10110 10107 10105 10103 10101 10098 10095 10095 10094 10093 10093 10085 10075 10070 10063 10053 10046 10040 10037 10038 10037 10030 10023 10017 10012 10008 10005 10002 10002 10003
10189 10184 10180 10175 10171 10167 10163 10160 10157 10153 10149 10147 10144 10141 10138 10135 10131 10128 10126 10124 10122 10121 10120 10118 10116 10115 10114 10111 10107 10105 10103 10101 10099 10097 10094 10091 10088 10087 10084 10081 10078 10078 10077 10078 10074 10065 10058 10052 10044 10035 10028 10023 10026 10024 10016 10010 10005 10000 9994 9988 9985 9986 9988
10179 10175 10170 10165 10161 10157 10154 10150 10147 10143 10139 10137 10134 10130 10127 10123 10120 10117 10114 10111 10109 10107 10106 10104 10103 10102 10101 10098 10094 10092 10090 10088 10085 10083 10080 10077 10075 10073 10071 10067 10063 10062 10061 10061 10061 10055 10047 10040 10033 10026 10016 10011 10014 10012 10002 9995 9993 9988 9982 9975 9968 9969 9972
10170 10165 10160 10156 10152 10148 10145 10141 10137 10133 10130 10127 10124 10120 10117 10113 10109 10106 10103 10099 10097 10094 10093 10091 10090 10089 10088 10086 10082 10079 10077 10074 10072 10070 10067 10064 10061 10059 10056 10053 10049 10047 10046 10045 10044 10042 10035 10028 10021 10013 10004 9999 10000 9998 9990 9982 9979 9974 9969 9963 9956 9951 9954
10160 10155 10150 10145 10141 10138 10135 10131 10127 10124 10121 10118 10115 10111 10107 10103 10100 10096 10091 10088 10085 10082 10080 10079 10077 10076 10075 10073 10070 10066 10064 10062 10059 10057 10054 10050 10048 10046 10042 10039 10035 10032 10030 10030 10029 10025 10020 10014 10007 9998 9992 9988 9985 9982 9978 9972 9966 9959 9951 9948 9944 9938 9938
10149 10144 10139 10135 10131 10128 10125 10121 10117 10114 10112 10109 10105 10102 10098 10094 10090 10085 10080 10076 10072 10070 10068 10067 10065 10064 10062 10060 10058 10054 10051 10048 10046 10044 10040 10037 10034 10032 10028 10024 10021 10017 10016 10015 10013 10009 10003 9998 9990 9980 9978 9976 9970 9966 9963 9957 9953 9948 9937 9931 9926 9921 9923
10139 10134 10129 10125 10122 10118 10115 10111 10107 10105 10102 10099 10096 10093 10089 10084 10080 10075 10070 10065 10060 10057 10056 10055 10053 10051 10049 10047 10045 10041 10038 10035 10033 10031 10027 10023 10020 10017 10013 10010 10006 10003 10001 10000 9998 9993 9986 9980 9972 9964 9962 9961 9955 9952 9948 9940 9936 9934 9926 9919 9910 9902 9905
10129 10124 10119 10116 10112 10108 10105 10101 10097 10095 10092 10089 10087 10083 10079 10074 10069 10064 10059 10053 10048 10045 10043 10042 10041 10038 10036 10035 10031 10028 10026 10023 10020 10018 10014 10010 10006 10002 9999 9996 9992 9989 9986 9985 9983 9977 9969 9963 9955 9948 9946 9945 9941 9937 9932 9925 9920 9917 9912 9908 9899 9887 9886
10117 10113 10109 10106 10102 10099 10095 10091 10087 10084 10082 10079 10077 10074 10069 10065 10059 10054 10048 10042 10037 10033 10031 10030 10029 10026 10023 10021 10018 10016 10014 10011 10008 10005 10001 9997 9992 9987 9984 9981 9978 9975 9972 9971 9969 9962 9953 9946 9941 9936 9931 9929 9928 9924 9917 9910 9905 9901 9897 9893 9887 9876 9870
10106 10101 10097 10095 10091 10088 10084 10079 10076 10074 10072 10069 10067 10064 10061 10055 10049 10043 10037 10031 10027 10022 10019 10017 10016 10013 10009 10005 10004 10002 10001 9999 9996 9992 9989 9984 9978 9973 9969 9965 9962 9959 9957 9957 9954 9948 9938 9928 9925 9924 9917 9913 9914 9910 9903 9897 9890 9886 9884 9880 9874 9865 9858
10094 10089 10086 10083 10080 10076 10072 10067 10065 10063 10061 10058 10056 10053 10051 10047 10039 10031 10024 10019 10015 10011 10007 10005 10003 10001 9995 9991 9989 9988 9987 9986 9983 9979 9976 9971 9965 9960 9955 9951 9946 9942 9941 9942 9939 9934 9925 9914 9910 9910 9904 9898 9899 9896 9890 9885 9877 9871 9870 9868 9862 9854 9847
10082 10078 10074 10072 10068 10064 10059 10055 10053 10052 10049 10047 10045 10042 10041 10037 10030 10021 10013 10006 10000 9997 9995 9992 9990 9987 9981 9977 9975 9974 9974 9972 9969 9966 9962 9957 9952 9947 9942 9936 9930 9926 9927 9927 9923 9918 9911 9902 9896 9896 9891 9883 9882 9881 9877 9872 9865 9856 9854 9854 9849 9841 9835
10069 10066 10063 10059 10055 10051 10046 10043 10041 10040 10037 10035 10033 10031 10029 10025 10019 10012 10004 9996 9988 9984 9982 9979 9976 9972 9967 9964 9961 9959 9958 9957 9954 9951 9947 9943 9938 9933 9928 9920 9913 9911 9913 9911 9906 9901 9895 9889 9884 9881 9877 9870 9866 9864 9862 9859 9853 9844 9840 9840 9836 9827 9822
10057 10054 10050 10046 10042 10039 10034 10030 10027 10026 10024 10022 10021 10019 10017 10012 10006 10000 9993 9985 9978 9973 9969 9965 9962 9958 9954 9951 9947 9944 9942 9940 9938 9935 9932 9928 9924 9919 9914 9905 9896 9896 9898 9893 9889 9884 9878 9875 9871 9866 9862 9857 9852 9849 9847 9845 9840 9832 9829 9828 9823 9816 9810
10045 10041 10037 10033 10029 10026 10022 10017 10013 10012 10011 10009 10007 10006 10003 9999 9994 9987 9980 9973 9967 9962 9957 9951 9947 9945 9942 9939 9935 9930 9927 9924 9922 9920 9917 9914 9911 9906 9899 9890 9882 9882 9880 9874 9871 9868 9862 9859 9857 9852 9849 9844 9838 9835 9834 9831 9826 9820 9816 9815 9811 9806 9800
10032 10027 10023 10020 10016 10014 10009 10003 9999 9998 9997 9994 9993 9993 9990 9986 9980 9974 9966 9961 9956 9949 9943 9937 9933 9932 9930 9927 9922 9917 9914 9910 9907 9905 9903 9900 9897 9892 9885 9876 9870 9868 9864 9857 9854 9851 9847 9845 9842 9838 9835 9830 9824 9822 9819 9817 9815 9809 9804 9801 9797 9794 9792
10018 10014 10010 10006 10003 10000 9996 9991 9985 9983 9983 9980 9978 9978 9976 9972 9967 9960 9953 9949 9943 9935 9928 9923 9920 9918 9916 9914 9910 9905 9901 9896 9893 9891 9889 9886 9882 9878 9872 9864 9859 9855 9849 9843 9839 9835 9833 9832 9828 9824 9822 9817 9812 9809 9805 9803 9802 9798 9794 9791 9785 9781 9780
10004 10000 9996 9993 9990 9987 9982 9977 9972 9969 9968 9967 9964 9962 9961 9958 9953 9947 9941 9936 9929 9921 9913 9909 9907 9905 9902 9899 9896 9892 9888 9883 9880 9878 9876 9871 9868 9864 9859 9854 9848 9842 9835 9830 9825 9821 9819 9818 9814 9811 9809 9804 9799 9796 9792 9789 9788 9786 9783 9781 9775 9770 9768
9990 9986 9983 9979 9976 9973 9968 9963 9960 9956 9954 9953 9949 9946 9946 9944 9939 9933 9928 9922 9915 9907 9901 9896 9892 9890 9887 9884 9881 9877 9874 9870 9867 9864 9862 9858 9853 9850 9846 9842 9838 9830 9822 9817 9812 9808 9805 9803 9800 9799 9796 9792 9787 9783 9780 9777 9775 9773 9771 9769 9765 9761 9757
9975 9973 9969 9965 9961 9958 9953 9949 9946 9943 9939 9937 9934 9931 9929 9928 9924 9918 9914 9909 9902 9894 9888 9883 9879 9875 9872 9868 9865 9862 9859 9856 9853 9850 9847 9843 9839 9836 9833 9829 9826 9819 9811 9804 9799 9795 9792 9788 9786 9786 9783 9779 9776 9771 9768 9765 9762 9761 9759 9757 9753 9750 9747
9961 9959 9956 9951 9945 9941 9938 9934 9932 9929 9925 9921 9919 9916 9914 9911 9907 9902 9897 9894 9889 9882 9875 9870 9866 9861 9857 9853 9849 9846 9844 9841 9838 9834 9831 9827 9823 9820 9818 9814 9811 9806 9800 9793 9786 9782 9779 9774 9772 9772 9769 9765 9763 9760 9755 9752 9750 9748 9746 9744 9741 9737 9735
9948 9946 9943 9938 9931 9925 9922 9920 9918 9914 9910 9907 9905 9902 9899 9895 9890 9886 9882 9879 9875 9868 9863 9858 9852 9847 9842 9838 9834 9832 9829 9826 9822 9819 9816 9811 9807 9804 9801 9798 9795 9791 9787 9781 9774 9769 9766 9761 9757 9757 9756 9752 9750 9747 9742 9739 9738 9736 9733 9731 9729 9726 9722
9934 9932 9929 9924 9918 9911 9906 9905 9903 9899 9895 9893 9891 9888 9884 9879 9875 9871 9867 9864 9860 9855 9851 9846 9840 9834 9829 9824 9821 9818 9816 9812 9808 9804 9801 9797 9793 9789 9786 9782 9779 9776 9773 9768 9762 9757 9753 9748 9744 9743 9742 9739 9737 9734 9729 9727 9726 9723 9719 9718 9716 9714 9710
9920 9917 9914 9910 9905 9898 9892 9889 9886 9882 9879 9878 9877 9873 9868 9863 9859 9855 9851 9848 9845 9841 9838 9833 9827 9821 9815 9811 9808 9805 9802 9798 9794 9790 9787 9783 9779 9776 9772 9768 9764 9762 9759 9755 9749 9745 9741 9735 9731 9730 9729 9727 9725 9721 9716 9715 9714 9710 9706 9704 9704 9703 9698
9904 9901 9897 9893 9889 9884 9878 9873 9868 9865 9863 9863 9861 9857 9852 9848 9844 9839 9835 9833 9830 9827 9824 9819 9813 9807 9802 9799 9796 9793 9788 9785 9781 9777 9774 9770 9766 9763 9759 9755 9752 9749 9746 9742 9738 9734 9729 9724 9721 9719 9716 9715 9713 9708 9704 9702 9701 9698 9693 9691 9690 9691 9687
9887 9882 9878 9875 9872 9867 9863 9857 9850 9847 9847 9846 9843 9840 9836 9832 9828 9824 9820 9817 9815 9813 9810 9804 9798 9793 9789 9786 9784 9780 9775 9772 9769 9765 9761 9756 9753 9750 9746 9742 9740 9737 9734 9731 9726 9722 9717 9713 9710 9708 9705 9703 9701 9697 9693 9690 9688 9686 9683 9680 9679 9678 9676
9871 9865 9860 9858 9855 9850 9847 9842 9835 9830 9830 9829 9826 9823 9820 9815 9811 9808 9805 9802 9800 9798 9794 9788 9782 9779 9775 9772 9770 9766 9761 9759 9757 9753 9748 9744 9740 9737 9733 9730 9728 9725 9723 9719 9715 9711 9707 9703 9700 9697 9694 9692 9690 9686 9682 9679 9676 9674 9671 9669 9668 9667 9664
9854 9849 9845 9843 9839 9835 9832 9828 9821 9815 9814 9813 9810 9807 9804 9799 9796 9792 9789 9786 9785 9783 9779 9773 9768 9765 9761 9758 9755 9751 9748 9746 9743 9739 9735 9732 9728 9725 9721 9717 9715 9713 9711 9708 9704 9700 9697 9693 9690 9687 9683 9681 9679 9675 9671 9667 9664 9662 9660 9659 9657 9656 9652
9838 9834 9830 9828 9824 9820 9816 9813 9808 9803 9799 9797 9795 9792 9788 9784 9781 9778 9774 9771 9769 9767 9763 9757 9753 9751 9747 9743 9740 9737 9734 9732 9729 9725 9722 9719 9715 9712 9709 9706 9703 9701 9699 9696 9692 9689 9686 9683 9679 9677 9674 9670 9668 9665 9661 9656 9653 9651 9649 9648 9646 9645 9642
9822 9818 9815 9812 9810 9806 9802 9798 9794 9791 9787 9783 9779 9775 9772 9769 9767 9764 9759 9756 9754 9753 9748 9742 9739 9737 9733 9728 9726 9723 9721 9718 9715 9712 9709 9706 9702 9699 9696 9694 9692 9689 9687 9684 9681 9678 9675 9672 9670 9667 9664 9660 9657 9654 9650 9646 9643 9640 9639 9638 9636 9634 9632
9805 9802 9799 9796 9794 9792 9789 9785 9781 9778 9774 9769 9764 9759 9757 9756 9754 9749 9744 9742 9740 9738 9734 9729 9725 9722 9718 9715 9712 9710 9707 9705 9702 9699 9696 9693 9689 9686 9683 9681 9680 9678 9675 9673 9670 9666 9663 9661 9659 9657 9654 9651 9647 9644 9640 9637 9633 9631 9629 9627 9625 9623 9621
9789 9786 9784 9781 9778 9776 9775 9773 9770 9765 9761 9755 9750 9745 9743 9743 9740 9735 9730 9728 9726 9724 9720 9716 9712 9708 9705 9702 9700 9698 9695 9692 9689 9687 9684 9681 9677 9674 9670 9669 9668 9667 9664 9662 9659 9656 9653 9650 9648 9646 9644 9641 9638 9634 9631 9627 9624 9622 9620 9617 9615 9614 9611
9772 9771 9770 9767 9763 9760 9760 9760 9757 9753 9747 9742 9736 9733 9732 9731 9727 9721 9716 9713 9711 9709 9707 9703 9698 9694 9691 9689 9687 9685 9683 9680 9677 9675 9672 9669 9665 9662 9658 9656 9656 9655 9653 9651 9648 9645 9642 9640 9638 9635 9633 9631 9628 9624 9621 9618 9615 9613 9610 9608 9605 9604 9602
9754 9753 9753 9752 9749 9748 9748 9747 9743 9739 9734 9728 9723 9721 9720 9718 9714 9709 9704 9700 9696 9694 9692 9689 9684 9681 9678 9676 9674 9672 9670 9668 9666 9663 9660 9657 9654 9650 9647 9644 9643 9643 9642 9640 9637 9635 9632 9630 9628 9625 9623 9621 9619 9615 9611 9608 9606 9603 9601 9598 9596 9594 9592